Klawock, AK

7:23 AM AKST on December 07, 2016 (GMT -0900)
Klawock

Weather History for PAKW - March, 2014

Change the Weather History Date:

Sunday, March 30, 2014

  Actual Average Record
Temperature  
Mean Temperature 47 °F -  
Max Temperature 55 °F 43 °F 66 °F (2016)
Min Temperature 39 °F 30 °F 27 °F (2007)
Degree Days  
Heating Degree Days 18    
Moisture  
Dew Point 29 °F    
Average Humidity 52    
Maximum Humidity 79    
Minimum Humidity 33    
Precipitation  
Precipitation 0.00 in - - ()
Sea Level Pressure  
Sea Level Pressure 29.79 in    
Wind  
Wind Speed 8 mph (NNE)    
Max Wind Speed 13 mph    
Max Gust Speed -    
Visibility 10 miles    
Events      
Averages and records for this station are not official NWS values.
T = Trace of Precipitation, MM = Missing Value Source: NWS Daily Summary

Daily Weather History Graph

Daily Weather History Graph

Search for Another Location

Airport or City:

Trip Planner

Search our weather history database for the weather conditions in past years. The results will help you decide how hot, cold, wet, or windy it might be!

Date:

Astronomy

Mar. 30, 2014 Rise Set
Actual Time 6:28 AM AKDT 7:26 PM AKDT
Civil Twilight 5:50 AM AKDT 8:04 PM AKDT
Nautical Twilight 5:05 AM AKDT 8:49 PM AKDT
Astronomical Twilight 4:15 AM AKDT 9:39 PM AKDT
Moon 6:17 AM AKDT (3/30) 7:54 PM AKDT (3/30)
Length of Visible Light 14h 13m
Length of Day
12h 58m
New Moon, 0% of the Moon is Illuminated
Mar 30
New Moon
Apr 7
First Quarter
Apr 14
Full
Apr 21
Last Quarter
Apr 28
New

Hourly Weather History & Observations

Time (AKDT) Temp. Windchill Dew Point Humidity Pressure Visibility Wind Dir Wind Speed Gust Speed Precip Events Conditions
12:53 AM 43.0 °F 36.8 °F 28.0 °F 56% 29.65 in 10.0 mi NNE 11.5 mph - N/A   Overcast
1:53 AM 43.0 °F 37.7 °F 28.0 °F 56% 29.66 in 10.0 mi NNE 9.2 mph - N/A   Overcast
2:53 AM 43.0 °F 36.4 °F 27.0 °F 53% 29.67 in 10.0 mi NNE 12.7 mph - N/A   Overcast
3:53 AM 43.0 °F 39.5 °F 27.0 °F 53% 29.68 in 10.0 mi NNE 5.8 mph - N/A   Overcast
4:53 AM 42.1 °F 36.1 °F 27.0 °F 55% 29.69 in 10.0 mi NNE 10.4 mph - N/A   Overcast
5:53 AM 42.1 °F 37.1 °F 26.1 °F 53% 29.70 in 10.0 mi NNE 8.1 mph - N/A   Overcast
6:53 AM 42.1 °F 35.2 °F 26.1 °F 53% 29.72 in 10.0 mi NNE 12.7 mph - N/A   Overcast
7:53 AM 42.1 °F 36.6 °F 26.1 °F 53% 29.73 in 10.0 mi NE 9.2 mph - N/A   Overcast
8:53 AM 44.1 °F 38.6 °F 26.1 °F 49% 29.74 in 10.0 mi NNE 10.4 mph - N/A   Overcast
9:53 AM 46.9 °F - 27.0 °F 46% 29.75 in 10.0 mi NNE 9.2 mph - N/A   Overcast
10:53 AM 51.1 °F - 27.0 °F 39% 29.76 in 10.0 mi NNE 11.5 mph - N/A   Mostly Cloudy
11:53 AM 54.0 °F - 26.1 °F 34% 29.77 in 10.0 mi NNE 11.5 mph - N/A   Scattered Clouds
12:53 PM 54.0 °F - 25.0 °F 33% 29.79 in 10.0 mi Calm Calm - N/A   Overcast
1:53 PM 55.0 °F - 26.1 °F 33% 29.80 in 10.0 mi SE 4.6 mph - N/A   Overcast
2:53 PM 55.0 °F - 27.0 °F 34% 29.81 in 10.0 mi North 6.9 mph - N/A   Overcast
3:53 PM 54.0 °F - 27.0 °F 35% 29.82 in 10.0 mi North 9.2 mph - N/A   Overcast
4:53 PM 54.0 °F - 27.0 °F 35% 29.83 in 10.0 mi North 5.8 mph - N/A   Overcast
5:53 PM 50.0 °F - 32.0 °F 50% 29.86 in 10.0 mi SW 10.4 mph - N/A   Overcast
6:53 PM 46.9 °F - 33.1 °F 59% 29.88 in 10.0 mi SSW 3.5 mph - N/A   Overcast
7:53 PM 45.0 °F - 34.0 °F 65% 29.90 in 10.0 mi Calm Calm - N/A   Overcast
8:53 PM 42.1 °F - 33.1 °F 70% 29.92 in 10.0 mi Calm Calm - N/A   Overcast
9:53 PM 41.0 °F - 34.0 °F 76% 29.93 in 10.0 mi Calm Calm - N/A   Overcast
10:53 PM 39.9 °F - 33.1 °F 77% 29.96 in 10.0 mi Calm Calm - N/A   Overcast
11:53 PM 39.0 °F - 33.1 °F 79% 29.98 in 10.0 mi Calm Calm - N/A   Overcast